Location: Palomar Mountain Lodge
(33.3110°N, 116.8495°W)
Time: 01:52:10
(UTC-07:00)

Cosmos 304 Rocket - Pass Details

Date: 19 May 2017
Orbit: 680 x 688 km, 74.0° (Epoch: 28 June)

Event Time Altitude Azimuth Distance (km) Brightness Sun altitude
Rises 20:13:04 0° 200° (SSW) 3,030 7.0 -6.3°
Reaches altitude 10° 20:15:22 10° 201° (SSW) 2,120 6.2 -6.7°
Maximum altitude 20:20:08 75° 287° (WNW) 712 4.1 -7.6°
Drops below altitude 10° 20:24:57 10° 13° (NNE) 2,137 6.6 -8.5°
Sets 20:27:16 0° 15° (NNE) 3,057 7.3 -8.9°
